Indianapolis, IN

9:21 AM EST on February 22, 2017 (GMT -0500)
Eagle Creek

Weather History for KEYE - November, 2012

Change the Weather History Date:

Monday, November 26, 2012

  Actual Average Record
Temperature  
Mean Temperature 39 °F 39 °F  
Max Temperature 48 °F 47 °F 64 °F (2006)
Min Temperature 30 °F 32 °F 21 °F (1996)
Degree Days  
Heating Degree Days 26 26  
Month to date heating degree days 604 524  
Since 1 July heating degree days 1104 916  
Cooling Degree Days 0 0  
Month to date cooling degree days 0 0  
Year to date cooling degree days 1339 1058  
Moisture  
Dew Point 27 °F    
Average Humidity 66    
Maximum Humidity 89    
Minimum Humidity 42    
Precipitation  
Precipitation 0.00 in 0.11 in 0.68 in (1993)
Month to date precipitation 1.34 3.22  
Year to date precipitation 35.18 37.23  
Sea Level Pressure  
Sea Level Pressure 30.19 in    
Wind  
Wind Speed 6 mph (North)    
Max Wind Speed 18 mph    
Max Gust Speed 22 mph    
Visibility 10 miles    
Events      
T = Trace of Precipitation, MM = Missing Value Source: NWS Daily Summary

Daily Weather History Graph

Daily Weather History Graph

Search for Another Location

Airport or City:

Trip Planner

Search our weather history database for the weather conditions in past years. The results will help you decide how hot, cold, wet, or windy it might be!

Date:

Astronomy

Nov. 26, 2012 Rise Set
Actual Time 7:42 AM EST 5:22 PM EST
Civil Twilight 7:13 AM EST 5:52 PM EST
Nautical Twilight 6:39 AM EST 6:25 PM EST
Astronomical Twilight 6:07 AM EST 6:57 PM EST
Moon 4:14 PM EST (11/26) 5:52 AM EST (11/26)
Length of Visible Light 10h 39m
Length of Day
9h 39m
Waxing Gibbous, 97% of the Moon is Illuminated
Nov 26
Waxing Gibbous
Nov 28
Full
Dec 6
Last Quarter
Dec 13
New
Dec 20
First Quarter

Hourly Weather History & Observations

Time (EST) Temp. Windchill Dew Point Humidity Pressure Visibility Wind Dir Wind Speed Gust Speed Precip Events Conditions
12:53 AM 39.9 °F 35.1 °F 30.0 °F 68% 30.06 in 10.0 mi NNW 6.9 mph - N/A   Clear
1:53 AM 36.0 °F - 28.9 °F 76% 30.06 in 10.0 mi Calm Calm - N/A   Scattered Clouds
2:53 AM 37.0 °F - 30.0 °F 76% 30.08 in 10.0 mi Calm Calm - N/A   Overcast
3:53 AM 35.1 °F - 28.0 °F 76% 30.09 in 10.0 mi Calm Calm - N/A   Clear
4:53 AM 33.1 °F - 28.0 °F 82% 30.10 in 10.0 mi Calm Calm - N/A   Clear
5:53 AM 34.0 °F 28.0 °F 30.0 °F 85% 30.13 in 10.0 mi NNW 6.9 mph - N/A   Clear
6:53 AM 32.0 °F 27.5 °F 25.0 °F 75% 30.15 in 10.0 mi North 4.6 mph - N/A   Clear
7:53 AM 30.9 °F 27.5 °F 25.0 °F 79% 30.16 in 10.0 mi North 3.5 mph - N/A   Clear
8:53 AM 36.0 °F - 27.0 °F 70% 30.18 in 10.0 mi Calm Calm - N/A   Clear
9:53 AM 39.0 °F 35.7 °F 28.0 °F 65% 30.19 in 10.0 mi East 4.6 mph - N/A   Clear
10:53 AM 41.0 °F - 28.0 °F 60% 30.20 in 10.0 mi Calm Calm - N/A   Clear
11:53 AM 43.0 °F 41.3 °F 27.0 °F 53% 30.20 in 10.0 mi NE 3.5 mph - N/A   Clear
12:53 PM 44.1 °F - 26.1 °F 49% 30.19 in 10.0 mi Calm Calm - N/A   Clear
1:53 PM 46.9 °F - 27.0 °F 46% 30.17 in 10.0 mi NNW 6.9 mph - N/A   Clear
2:53 PM 46.9 °F - 25.0 °F 42% 30.16 in 10.0 mi NNW 8.1 mph - N/A   Clear
3:53 PM 46.9 °F - 25.0 °F 42% 30.17 in 10.0 mi NNW 6.9 mph - N/A   Overcast
4:53 PM 44.1 °F 39.0 °F 27.0 °F 51% 30.19 in 10.0 mi North 9.2 mph - N/A   Overcast
5:53 PM 42.1 °F 35.7 °F 28.0 °F 58% 30.20 in 10.0 mi North 11.5 mph - N/A   Overcast
6:53 PM 39.0 °F 31.8 °F 28.0 °F 65% 30.22 in 10.0 mi North 11.5 mph - N/A   Overcast
7:53 PM 37.9 °F 30.5 °F 28.0 °F 68% 30.26 in 10.0 mi NNW 11.5 mph - N/A   Overcast
8:53 PM 36.0 °F 27.5 °F 27.0 °F 70% 30.27 in 10.0 mi North 12.7 mph - N/A   Overcast
9:53 PM 34.0 °F 24.6 °F 28.9 °F 82% 30.30 in 10.0 mi North 13.8 mph 19.6 mph N/A   Overcast
10:30 PM 33.8 °F 27.0 °F 28.4 °F 81% 30.28 in 10.0 mi North 8.1 mph - N/A   Overcast
10:53 PM 33.1 °F 25.5 °F 28.0 °F 82% 30.30 in 10.0 mi NNE 9.2 mph - N/A   Overcast
11:17 PM 32.0 °F 23.0 °F 26.6 °F 80% 30.28 in 10.0 mi North 11.5 mph - N/A   Overcast
11:53 PM 32.0 °F 24.8 °F 27.0 °F 82% 30.30 in 10.0 mi North 8.1 mph - N/A   Overcast